TIANMU-1 12

Last updated on Mon Jun 22 2026 00:02:46 GMT+0000 (Coordinated Universal Time)

1 58646U 23205B 26172.54550061 .00004499 00000+0 17246-3 0 9993 2 58646 97.3438 193.7888 0006195 347.6663 12.4424 15.26998880138178
UTC large
Height (km)
Speed (km/s)
/
Latitude / Longitude
Inclination (degrees)
Orbital Period (minutes)
Azimuth
Elevation
Range (km)
Doppler Factor

Next 0 passes for location: London (51.5072 / 0.1276)

No passes found over London.
TIANMU-1 12